Temperature
-1 -1 -1 -1 -1 -1 -1 -0 -0 -0 -0 0 0 0 1 1 1 1 1 1 1 1 1 1 2 2 2 2 2 2 2 2 2 2 2 2 2 2 2 2 2 2 2
-2 -1 -1 -1 -1 -1 -1 -1 -1 -1 -1 -1 -0 -0 0 0 0 1 1 1 1 1 1 1 1 1 1 1 1 1 1 1 1 1 1 1 2 2 2 2 2 2 2
-2 -2 -2 -2 -2 -2 -2 -2 -2 -2 -1 -1 -1 -1 -1 -0 -0 -0 0 0 0 0 0 0 0 0 0 0 1 1 1 1 1 0 0 1 1 1 1 1 1 1 1
-3 -3 -3 -3 -3 -2 -2 -2 -2 -2 -2 -2 -2 -2 -1 -1 -1 -1 -1 -1 -0 -0 -0 -0 -0 -0 -0 -0 -0 0 -0 -0 -0 -0 -0 -0 0 -0 -0 -0 0 0 0
-4 -4 -4 -3 -3 -3 -3 -3 -3 -3 -3 -3 -3 -2 -2 -2 -2 -1 -1 -1 -1 -1 -1 -1 -1 -1 -1 -1 -1 -1 -1 -1 -1 -1 -1 -1 -1 -1 -1 -1 -1 -1 -1
-5 -4 -4 -4 -4 -4 -4 -4 -4 -4 -4 -4 -3 -3 -3 -3 -2 -2 -2 -2 -2 -2 -1 -1 -1 -1 -1 -1 -2 -2 -2 -2 -2 -2 -2 -1 -1 -1 -1 -1 -1 -1 -2
-5 -5 -5 -5 -5 -4 -4 -4 -4 -4 -4 -4 -4 -4 -4 -3 -3 -3 -3 -3 -2 -2 -2 -2 -2 -2 -2 -2 -2 -2 -2 -2 -2 -2 -2 -2 -2 -2 -2 -2 -2 -2 -2
-6 -6 -6 -5 -5 -5 -5 -5 -5 -5 -5 -5 -4 -4 -4 -4 -4 -4 -4 -3 -3 -3 -3 -3 -3 -2 -2 -2 -3 -3 -3 -3 -3 -3 -2 -2 -2 -2 -2 -2 -2 -3 -3
-6 -6 -6 -6 -6 -6 -6 -5 -5 -5 -5 -5 -5 -5 -5 -4 -4 -4 -4 -4 -4 -4 -3 -3 -3 -3 -3 -3 -3 -3 -3 -3 -3 -3 -3 -3 -3 -3 -3 -3 -3 -4 -4
-7 -7 -7 -7 -7 -6 -6 -6 -6 -6 -6 -6 -6 -5 -5 -5 -5 -5 -5 -5 -5 -4 -4 -4 -4 -4 -4 -4 -4 -4 -4 -4 -4 -4 -4 -4 -4 -4 -4 -4 -4 -4 -4
-8 -7 -7 -7 -7 -7 -7 -7 -7 -7 -7 -6 -6 -6 -6 -6 -6 -6 -5 -5 -5 -5 -5 -5 -5 -5 -5 -5 -4 -4 -4 -4 -4 -4 -5 -5 -5 -5 -5 -5 -5 -5 -5
-8 -8 -8 -8 -8 -8 -7 -7 -7 -7 -7 -7 -7 -7 -6 -6 -6 -6 -6 -6 -6 -6 -6 -5 -5 -6 -5 -5 -5 -5 -5 -5 -5 -5 -5 -5 -5 -5 -5 -5 -5 -6 -6
-9 -8 -8 -8 -8 -8 -8 -8 -8 -8 -8 -8 -8 -7 -7 -7 -7 -7 -7 -7 -7 -7 -7 -6 -6 -6 -6 -6 -6 -6 -6 -6 -6 -6 -6 -6 -6 -6 -6 -6 -6 -6 -6
-9 -9 -9 -9 -8 -8 -8 -8 -8 -8 -8 -8 -8 -8 -8 -8 -7 -7 -7 -7 -7 -7 -7 -7 -7 -7 -7 -7 -7 -7 -7 -7 -7 -6 -6 -6 -6 -7 -7 -7 -7 -7 -7
-10 -9 -9 -9 -9 -9 -9 -9 -9 -9 -9 -9 -9 -9 -9 -8 -8 -8 -8 -8 -8 -8 -8 -8 -8 -8 -8 -8 -8 -8 -7 -7 -7 -7 -7 -7 -7 -8 -7 -8 -8 -8 -8
-10 -10 -10 -10 -10 -10 -10 -9 -9 -9 -9 -10 -10 -9 -9 -9 -9 -9 -9 -8 -8 -8 -8 -8 -8 -8 -8 -8 -8 -8 -8 -8 -8 -8 -8 -8 -8 -8 -8 -8 -8 -8 -8
-11 -10 -10 -10 -10 -10 -10 -10 -10 -10 -10 -10 -10 -10 -10 -10 -9 -9 -9 -9 -9 -9 -9 -9 -9 -9 -9 -9 -9 -9 -9 -9 -9 -8 -8 -8 -8 -8 -9 -9 -9 -9 -9
-11 -11 -11 -11 -11 -11 -11 -11 -11 -11 -11 -10 -10 -10 -10 -10 -10 -10 -10 -10 -10 -10 -10 -10 -10 -9 -9 -9 -9 -9 -9 -9 -9 -9 -9 -9 -9 -9 -9 -9 -9 -9 -9
-12 -12 -12 -12 -12 -12 -12 -12 -11 -11 -11 -11 -11 -11 -11 -11 -11 -10 -10 -10 -10 -10 -10 -10 -10 -10 -10 -10 -10 -10 -10 -10 -10 -10 -10 -9 -9 -10 -10 -10 -10 -10 -10
-12 -12 -12 -13 -12 -12 -12 -12 -12 -12 -12 -12 -12 -11 -11 -11 -11 -11 -11 -11 -11 -11 -11 -11 -11 -11 -11 -11 -10 -10 -10 -10 -10 -10 -10 -10 -10 -10 -10 -10 -10 -10 -10
-13 -13 -13 -13 -13 -13 -13 -13 -13 -13 -13 -12 -12 -12 -12 -12 -12 -12 -11 -11 -11 -11 -11 -11 -11 -11 -11 -11 -11 -11 -11 -11 -11 -11 -11 -11 -11 -11 -11 -11 -11 -11 -11
-13 -13 -14 -14 -14 -13 -13 -13 -13 -13 -13 -13 -13 -13 -13 -13 -12 -12 -12 -12 -12 -12 -12 -12 -12 -12 -12 -12 -12 -11 -11 -11 -11 -11 -11 -11 -11 -11 -11 -11 -11 -11 -12
-14 -14 -14 -14 -14 -14 -14 -14 -14 -14 -14 -14 -14 -14 -13 -13 -13 -13 -13 -13 -13 -12 -12 -12 -12 -12 -12 -12 -12 -12 -12 -12 -12 -11 -11 -11 -11 -12 -12 -12 -12 -12 -12
-14 -14 -14 -14 -14 -14 -14 -14 -14 -14 -14 -14 -14 -14 -14 -14 -14 -14 -13 -13 -13 -13 -13 -13 -13 -13 -13 -12 -12 -12 -12 -12 -12 -12 -12 -12 -12 -12 -12 -12 -12 -12 -12
-15 -15 -15 -15 -15 -15 -15 -15 -15 -15 -15 -15 -15 -15 -15 -15 -14 -14 -14 -14 -14 -14 -13 -13 -13 -13 -13 -13 -13 -13 -13 -13 -12 -12 -12 -12 -12 -12 -12 -12 -12 -13 -13
-15 -15 -15 -15 -15 -15 -15 -15 -15 -15 -15 -15 -15 -15 -15 -15 -15 -15 -14 -14 -14 -14 -14 -14 -14 -13 -13 -13 -13 -13 -13 -13 -13 -13 -13 -13 -13 -13 -13 -13 -13 -13 -13
Wind_Speed
3 2 2 2 2 2 2 2 2 2 3 3 3 4 4 4 4 4 5 5 5 4 4 4 4 4 3 3 3 3 2 3 3 2 1 1 2 3 2 2 2 1 1
3 3 2 2 2 2 2 2 2 2 2 3 3 4 4 4 4 5 6 6 6 6 6 5 5 4 4 4 4 4 3 3 4 3 2 1 2 3 3 2 1 1 2
3 3 3 2 2 2 2 2 2 2 2 2 3 4 4 4 5 5 6 6 6 7 7 7 6 5 5 4 4 4 3 2 3 3 3 2 1 2 2 1 1 1 2
3 3 4 3 3 3 2 2 2 2 2 2 3 4 4 4 4 5 5 5 6 5 5 6 6 7 7 6 5 5 4 3 3 3 2 2 1 1 2 2 2 1 2
3 3 4 4 4 3 2 2 2 1 2 2 2 3 3 3 4 5 5 5 5 5 5 5 6 7 8 7 6 6 6 4 4 3 3 2 2 2 3 3 3 2 2
3 4 4 4 3 3 3 2 2 2 2 2 2 3 3 3 5 6 5 5 5 5 5 5 5 6 8 8 9 8 8 7 6 5 4 5 4 4 3 3 3 2 3
3 4 4 4 4 4 3 2 2 2 2 2 2 3 3 4 5 6 6 4 5 5 5 5 5 5 7 6 7 8 8 8 8 7 6 6 5 6 5 4 4 3 3
4 4 4 4 4 4 3 3 3 2 2 2 3 3 3 4 6 6 6 4 4 4 5 5 6 5 6 6 5 5 5 5 7 6 6 6 5 6 7 6 5 2 1
4 4 4 4 4 4 3 3 3 2 3 3 3 3 4 4 5 6 5 3 4 5 5 5 5 6 8 8 6 6 5 4 5 6 7 7 7 7 6 4 3 2 2
6 5 5 4 4 5 4 3 3 3 3 3 3 3 3 4 5 5 5 3 4 4 4 4 6 7 8 9 7 7 7 5 4 3 3 3 4 6 7 6 5 4 2
6 6 5 4 4 4 3 3 2 2 2 3 3 3 3 4 5 6 6 4 4 4 4 3 4 7 8 9 8 6 8 6 5 5 4 3 3 3 4 4 5 4 3
5 5 5 4 4 3 2 2 2 2 2 2 2 3 3 4 5 6 7 6 5 4 4 3 4 6 7 7 6 7 7 5 4 4 4 4 4 3 3 4 4 4 4
5 5 5 4 3 2 2 2 2 2 2 2 2 3 3 3 4 6 7 7 6 4 3 5 5 6 6 5 6 7 5 4 4 4 5 4 3 3 3 3 2 2 1
4 4 4 3 3 2 2 2 2 2 2 3 3 3 3 3 3 3 4 5 5 4 3 4 5 5 4 4 4 4 3 4 4 4 4 3 2 3 3 3 2 2 1
4 4 3 3 3 2 2 2 3 3 3 3 3 4 4 4 5 5 4 4 3 3 2 2 2 2 3 2 2 2 3 3 3 3 4 4 3 3 3 3 2 2 2
3 3 3 2 2 2 2 3 4 4 6 6 6 5 5 6 6 7 6 6 5 5 3 3 3 3 4 4 4 3 3 3 3 4 4 4 4 4 3 3 3 3 3
3 3 3 3 2 2 2 2 3 4 5 5 6 6 6 5 5 5 5 5 4 4 3 3 3 4 4 4 4 4 4 3 3 4 4 4 4 4 4 4 4 3 3
3 4 3 3 2 2 2 3 2 2 3 3 4 5 6 5 4 4 4 2 2 2 2 2 3 3 3 3 4 4 3 3 3 3 4 4 4 4 4 4 4 5 4
3 3 3 2 2 2 2 2 2 2 3 3 3 3 5 4 3 2 1 1 2 2 2 2 2 3 3 3 3 3 4 4 4 4 4 4 4 5 5 5 5 6 5
3 4 3 2 2 2 2 2 2 2 2 2 3 3 3 2 1 1 1 1 1 1 1 2 2 2 3 3 3 3 4 4 4 4 4 4 4 4 5 5 5 5 5
3 3 4 3 2 2 2 2 2 2 2 2 3 3 3 1 1 1 1 1 1 1 1 1 2 2 2 3 3 4 4 4 4 4 4 4 4 4 4 4 5 5 4
2 2 2 2 2 2 2 1 1 2 2 2 3 3 5 2 1 1 1 2 2 2 2 2 2 2 3 3 3 4 4 4 4 4 4 4 4 4 4 4 4 4 4
2 2 2 2 2 3 2 1 1 2 2 2 3 3 2 2 2 2 2 2 2 2 2 2 2 3 3 4 4 5 5 5 5 5 5 5 5 5 5 5 6 6 5
2 2 2 2 2 2 2 2 2 2 2 2 3 3 2 2 2 3 2 3 3 3 3 3 3 4 5 5 5 6 6 7 7 7 7 6 6 5 5 5 6 6 6
2 2 2 2 2 2 2 3 3 3 3 3 3 3 3 3 3 3 3 3 3 3 4 4 4 5 6 6 6 7 7 8 8 8 8 7 6 6 6 6 6 6 6
2 3 3 2 3 3 3 3 3 3 3 3 3 3 3 3 3 4 4 3 3 4 4 5 5 6 6 7 8 8 9 9 9 10 8 7 6 6 6 5 6 6 6
Wind_Direction
335 321 319 322 325 316 262 244 226 219 209 201 205 205 204 200 194 192 193 191 191 194 199 201 207 195 197 185 174 171 176 175 205 238 244 214 196 190 213 204 200 202 266
329 326 319 321 322 308 299 277 247 229 223 218 206 203 205 203 199 197 201 200 197 199 202 201 210 201 205 192 182 185 189 183 187 215 233 220 214 202 188 187 210 220 259
340 338 331 327 319 309 298 303 279 238 232 230 203 203 205 203 202 202 203 204 204 206 203 201 207 198 208 198 189 193 192 185 176 190 217 220 214 190 175 193 222 267 269
334 329 317 306 300 294 286 283 282 252 228 229 218 213 212 207 207 207 202 202 207 211 209 205 206 203 210 199 197 192 182 176 169 176 198 206 205 186 173 197 241 240 269
324 312 300 300 301 301 293 282 274 266 236 230 227 223 218 212 214 207 202 201 203 208 209 211 212 212 212 205 202 191 184 187 184 188 201 202 202 193 205 198 226 236 255
311 301 304 306 307 306 290 285 284 276 261 226 220 221 219 226 223 215 208 199 203 209 213 218 222 220 211 211 211 205 196 194 196 200 215 212 212 208 201 205 208 218 243
304 304 308 306 302 299 292 293 287 277 275 251 234 221 227 237 229 223 218 208 206 211 212 212 221 226 211 208 212 213 212 212 207 204 209 217 212 205 197 209 214 220 234
305 305 304 303 297 297 287 285 284 284 260 254 246 231 234 242 229 223 218 218 213 215 217 215 213 210 211 202 197 200 209 216 215 210 209 212 212 202 198 207 212 210 224
299 297 299 296 293 291 278 277 281 278 273 263 253 237 235 247 238 223 215 214 220 223 226 220 211 208 215 208 199 200 210 226 232 221 220 217 212 207 194 171 178 196 245
301 298 295 288 282 279 269 272 277 269 271 273 267 257 241 242 240 231 220 219 227 231 229 227 225 219 218 213 202 196 207 214 196 188 196 206 202 201 203 197 192 204 225
302 300 298 292 283 280 278 270 262 264 268 271 269 268 254 246 242 239 230 222 225 226 231 225 226 227 227 221 214 205 209 198 184 179 181 184 186 186 197 206 204 203 215
304 303 302 300 293 289 283 281 269 250 246 259 267 271 262 254 254 244 238 235 230 225 228 226 225 226 231 231 226 216 210 196 178 181 191 198 200 203 197 199 206 216 219
308 305 303 301 298 292 271 273 275 265 254 264 260 261 257 253 254 252 242 239 236 236 232 223 222 224 229 229 225 218 205 191 185 191 200 209 203 188 176 172 167 168 189
298 301 302 301 302 304 288 270 257 255 253 258 260 256 257 253 246 245 238 240 235 241 242 226 218 221 222 216 214 218 209 197 195 198 197 192 173 177 190 181 188 181 208
296 300 301 297 292 301 295 270 259 250 249 246 252 256 248 248 252 247 234 229 214 215 196 185 192 194 200 199 196 194 191 191 198 192 188 186 192 199 201 190 190 189 211
295 301 300 301 296 294 298 304 290 278 278 272 270 268 266 267 264 251 242 236 225 207 196 185 195 200 204 204 205 203 202 201 197 194 193 195 199 200 200 198 197 198 211
281 290 295 296 294 293 286 283 296 303 298 292 285 284 282 275 258 249 240 233 211 184 178 189 201 208 208 205 206 207 210 208 197 196 200 201 198 198 200 205 206 207 217
290 291 294 290 289 287 284 278 270 278 295 299 294 289 291 284 269 254 239 210 196 189 189 200 209 212 212 209 208 209 208 203 201 202 205 203 198 200 204 207 207 207 214
294 293 291 290 288 287 290 293 284 274 280 291 304 299 298 293 284 275 239 183 195 207 209 213 215 215 214 213 211 209 209 209 206 205 208 205 201 200 207 211 211 215 219
296 298 299 295 296 300 300 299 303 303 307 314 311 308 314 333 327 309 266 199 200 222 228 229 228 221 218 215 212 209 210 212 208 208 208 205 203 204 209 212 212 213 219
299 303 305 307 300 289 284 285 290 293 299 307 308 308 304 306 289 285 266 256 243 244 244 241 242 238 234 225 216 212 212 216 211 208 206 205 204 207 211 213 216 216 214
296 299 300 292 292 288 282 285 289 290 296 301 312 320 327 341 331 296 281 275 272 273 264 248 248 254 247 235 225 220 220 221 215 207 205 205 206 210 212 213 215 215 213
296 299 300 296 290 293 303 304 294 290 293 298 306 312 317 318 307 297 286 278 282 284 282 264 253 261 267 255 244 235 227 227 222 211 205 207 210 211 210 213 215 217 219
296 290 290 295 295 291 289 290 288 287 287 289 293 295 294 293 293 290 286 284 283 284 279 267 259 259 262 264 260 252 244 240 232 223 214 210 213 214 213 215 218 217 220
287 282 282 282 284 283 283 284 283 283 285 286 286 288 288 288 290 289 285 284 285 281 280 275 270 264 259 258 259 258 252 247 241 230 219 214 213 216 215 217 221 222 224
295 285 278 275 275 276 277 278 278 278 276 279 279 278 278 279 281 285 287 283 282 283 284 282 277 269 265 262 260 258 255 250 247 243 228 217 210 217 214 219 219 223 225
Height
1469 1469 1469 1469 1470 1470 1471 1472 1473 1474 1475 1476 1478 1480 1481 1483 1486 1488 1490 1492 1495 1497 1499 1501 1503 1507 1509 1512 1514 1516 1518 1521 1521 1522 1526 1528 1529 1531 1533 1534 1535 1537 1538
1467 1467 1467 1467 1467 1467 1467 1468 1469 1470 1470 1471 1473 1475 1476 1478 1481 1483 1485 1487 1489 1491 1494 1496 1499 1502 1504 1506 1508 1511 1513 1515 1517 1517 1520 1522 1524 1526 1527 1529 1530 1532 1533
1464 1463 1463 1463 1463 1463 1463 1464 1465 1465 1466 1467 1468 1469 1471 1473 1476 1478 1480 1482 1484 1487 1489 1491 1494 1496 1498 1501 1503 1505 1508 1510 1512 1513 1514 1517 1519 1521 1522 1523 1525 1526 1528
1461 1461 1460 1460 1460 1459 1460 1460 1461 1461 1462 1462 1463 1465 1467 1469 1471 1473 1476 1478 1480 1482 1484 1486 1489 1491 1493 1496 1498 1500 1502 1505 1507 1509 1510 1512 1514 1515 1517 1518 1519 1521 1522
1458 1458 1457 1457 1456 1456 1456 1456 1457 1457 1458 1458 1459 1461 1462 1464 1466 1468 1471 1473 1475 1477 1479 1481 1483 1486 1488 1491 1492 1494 1497 1499 1501 1503 1505 1506 1508 1510 1511 1512 1514 1515 1516
1455 1455 1454 1453 1453 1452 1452 1453 1453 1453 1454 1454 1455 1456 1458 1459 1461 1464 1466 1468 1470 1472 1474 1476 1478 1480 1483 1485 1487 1489 1492 1493 1495 1497 1499 1500 1502 1504 1506 1507 1508 1509 1509
1452 1451 1450 1450 1449 1448 1449 1449 1449 1449 1450 1450 1451 1452 1453 1455 1457 1458 1460 1463 1464 1466 1469 1471 1473 1475 1477 1479 1481 1484 1486 1488 1491 1493 1493 1495 1497 1499 1501 1502 1503 1504 1504
1448 1448 1447 1446 1445 1445 1445 1445 1445 1445 1446 1446 1447 1447 1448 1450 1452 1454 1455 1457 1459 1461 1463 1465 1467 1469 1471 1473 1475 1477 1479 1482 1484 1486 1488 1490 1492 1494 1496 1497 1498 1499 1499
1445 1444 1443 1442 1442 1441 1441 1441 1441 1442 1442 1442 1442 1443 1444 1445 1447 1449 1451 1452 1454 1455 1457 1459 1461 1463 1465 1468 1470 1471 1473 1476 1478 1480 1483 1484 1486 1488 1490 1492 1492 1493 1493
1441 1440 1440 1439 1438 1437 1437 1438 1438 1438 1438 1438 1438 1439 1439 1440 1442 1443 1445 1447 1448 1450 1451 1453 1455 1457 1459 1461 1463 1465 1467 1469 1472 1474 1476 1478 1480 1482 1484 1486 1487 1488 1488
1438 1437 1436 1435 1434 1433 1433 1433 1434 1434 1434 1434 1434 1434 1434 1435 1436 1438 1440 1442 1443 1444 1445 1447 1449 1452 1454 1456 1458 1460 1461 1464 1466 1468 1470 1472 1474 1475 1477 1479 1481 1483 1483
1435 1433 1432 1431 1430 1430 1429 1429 1429 1429 1429 1429 1429 1429 1430 1431 1433 1434 1435 1436 1438 1439 1440 1442 1444 1446 1449 1451 1453 1455 1457 1459 1461 1462 1464 1466 1467 1469 1471 1474 1475 1477 1478
1431 1430 1429 1428 1427 1427 1426 1425 1425 1425 1424 1424 1424 1424 1425 1427 1428 1429 1430 1432 1433 1434 1435 1437 1439 1441 1443 1446 1447 1449 1451 1453 1454 1456 1458 1460 1462 1464 1466 1468 1469 1471 1472
1428 1426 1425 1424 1423 1423 1423 1422 1422 1421 1421 1420 1420 1420 1421 1422 1423 1424 1426 1427 1428 1429 1430 1432 1434 1436 1438 1440 1441 1443 1445 1447 1449 1451 1453 1455 1457 1458 1460 1462 1463 1465 1466
1424 1423 1422 1421 1420 1419 1419 1419 1418 1418 1418 1417 1417 1417 1417 1417 1419 1420 1421 1422 1423 1425 1426 1427 1429 1430 1432 1434 1436 1437 1439 1442 1443 1445 1447 1449 1451 1453 1454 1456 1458 1459 1460
1420 1420 1419 1418 1417 1416 1415 1415 1414 1414 1414 1414 1414 1414 1413 1414 1415 1416 1417 1418 1419 1421 1422 1423 1424 1425 1427 1428 1430 1432 1434 1436 1438 1440 1441 1443 1445 1447 1449 1451 1452 1453 1454
1417 1416 1416 1415 1414 1413 1412 1411 1410 1410 1410 1410 1410 1410 1410 1411 1412 1413 1413 1414 1415 1417 1417 1418 1419 1421 1422 1423 1425 1427 1429 1431 1433 1435 1436 1438 1440 1442 1443 1445 1446 1447 1449
1415 1414 1413 1412 1411 1410 1409 1408 1407 1406 1406 1405 1406 1406 1406 1407 1408 1408 1410 1411 1411 1412 1412 1413 1414 1416 1417 1419 1421 1422 1424 1426 1428 1430 1431 1433 1434 1436 1438 1439 1441 1442 1443
1412 1411 1410 1409 1408 1407 1406 1405 1404 1404 1403 1402 1402 1403 1403 1404 1404 1405 1405 1406 1406 1407 1408 1409 1411 1412 1413 1415 1416 1418 1419 1421 1423 1424 1426 1427 1429 1431 1432 1434 1435 1437 1438
1409 1408 1407 1406 1405 1404 1403 1403 1402 1401 1400 1400 1400 1400 1400 1401 1400 1401 1402 1402 1403 1404 1405 1406 1407 1408 1410 1411 1412 1413 1414 1416 1417 1419 1420 1422 1424 1425 1427 1429 1430 1431 1432
1407 1406 1405 1404 1403 1402 1401 1400 1399 1399 1398 1397 1397 1398 1398 1398 1398 1398 1399 1399 1400 1401 1402 1403 1403 1404 1406 1407 1407 1408 1409 1410 1412 1413 1415 1417 1418 1420 1422 1423 1424 1426 1427
1404 1403 1402 1401 1400 1400 1399 1398 1397 1397 1396 1395 1395 1396 1396 1396 1396 1396 1396 1397 1397 1398 1399 1399 1400 1401 1402 1402 1403 1404 1404 1405 1407 1408 1410 1411 1413 1415 1416 1418 1419 1420 1421
1402 1401 1400 1399 1398 1397 1397 1396 1395 1394 1394 1393 1393 1393 1393 1393 1393 1393 1393 1394 1394 1395 1395 1396 1396 1397 1397 1398 1399 1399 1400 1400 1402 1404 1405 1406 1408 1409 1411 1412 1413 1414 1415
1400 1399 1398 1397 1396 1395 1394 1393 1393 1392 1391 1391 1391 1390 1390 1390 1390 1390 1391 1391 1391 1391 1392 1392 1392 1393 1393 1394 1394 1395 1396 1396 1398 1399 1400 1401 1402 1404 1405 1406 1407 1408 1410
1398 1397 1395 1394 1393 1392 1392 1391 1390 1389 1389 1388 1388 1388 1387 1387 1387 1387 1387 1387 1387 1387 1388 1388 1388 1388 1389 1389 1390 1391 1391 1392 1393 1394 1395 1396 1397 1398 1399 1401 1402 1403 1404
1395 1394 1393 1392 1391 1390 1389 1388 1387 1386 1386 1385 1385 1384 1384 1384 1384 1384 1384 1384 1383 1383 1384 1384 1384 1384 1384 1385 1385 1386 1387 1387 1388 1390 1391 1391 1392 1393 1394 1395 1396 1397 1398